Regional Weather Roundup
Issued by NWS Kansas City/Pleasant Hill, MO

Home | Current Version | Previous Version | Graphics & Text | Print | Product List | Glossary Off
Versions: 1 2 3 4 5 6 7 8 9 10 11 12 13 14 15 16 17 18 19 20 21 22 23 24 25 26 27 28 29 30 31 32 33 34 35 36 37 38 39 40 41 42 43 44 45 46 47 48 49 50

000
ASUS43 KEAX 181510
RWREAX

WEATHER ROUNDUP FOR EASTERN KANSAS AND NORTHWEST MISSOURI
NATIONAL WEATHER SERVICE KANSAS CITY/PLEASANT HILL MO
1000 AM CDT FRI APR 18 2014

KSZ040-057-103>105-MOZ028-029-037-043-181600-
...KANSAS CITY METROPOLITAN AREA...

CITY           SKY/WX    TMP DP  RH WIND       PRES   REMARKS
K.C. INTL      SUNNY     50  36  58 CALM      30.32S
K.C. DOWNTOWN  SUNNY     50  37  61 VRB3      30.32F
LEES SUMMIT    SUNNY     50  38  63 VRB3      30.32S
OLATHE - IXD   SUNNY     50  38  63 SE5       30.32S
OLATHE - OJC   SUNNY     50  39  66 S3        30.31S
LAWRENCE       SUNNY     49  39  68 S3        30.32F HAZE

$$

MOZ001>008-011>017-020>025-030>033-038>040-044>046-053-054-181600-
...NORTHERN AND CENTRAL MISSOURI...

CITY           SKY/WX    TMP DP  RH WIND       PRES   REMARKS
ST. JOSEPH     SUNNY     49  35  58 S8        30.33S
MOSBY          FAIR      46  37  71 CALM      30.33S
WARRENSBURG    SUNNY    N/A N/A N/A NE5       30.33S
WHITEMAN AFB   SUNNY     50  40  70 VRB3      30.33R
CLINTON        SUNNY     52  43  71 E6        30.33R
SEDALIA        SUNNY     52  43  71 NE7       30.34R
WARSAW         NOT AVBL
MARSHALL         N/A     48  41  76 NE6       30.34
CHILLICOTHE      N/A     50  38  63 E3        30.34F
MOBERLY        SUNNY     54  37  54 E5        30.35R
KIRKSVILLE     SUNNY     51  36  56 E6        30.35S

$$

MOZ041-047>049-056>058-063>065-088>090-097-181600-
...EASTERN AND SOUTHERN MISSOURI...

CITY           SKY/WX    TMP DP  RH WIND       PRES   REMARKS
ST. LOUIS INTL MOSUNNY   57  39  51 CALM      30.33R
SPIRIT OF STL  SUNNY     54  40  59 VRB3      30.33R
COLUMBIA       SUNNY     54  42  64 VRB6      30.33R
JEFFERSON CITY SUNNY     53  39  59 SE7       30.33S
MEXICO         SUNNY     52  41  66 E6        30.34R
HANNIBAL       SUNNY     57  34  41 NE5       30.35R
ROLLA          SUNNY     55  41  59 E7        30.30S
LEBANON        SUNNY     59  41  51 E3        30.31R
OSAGE BEACH    SUNNY     55  41  58 NE6       30.33S
SPRINGFIELD    SUNNY     60  42  51 CALM      30.28S
BRANSON        SUNNY     57  41  54 SE5       30.29S
NEVADA         SUNNY     52  43  71 NE7       30.33R
JOPLIN         SUNNY     55  43  63 CALM      30.30R
WEST PLAINS    SUNNY     61  42  49 E3        30.29R

$$

IAZ060-094-KSZ022-034>040-054-083-096-NEZ052-066-093-181600-
...KANSAS...SOUTHEAST NEBRASKA AND IOWA...

CITY           SKY/WX    TMP DP  RH WIND       PRES   REMARKS
TOPEKA         SUNNY     49  38  65 E5        30.32F HAZE
MANHATTAN      SUNNY     48  36  63 CALM      30.29F HAZE
EMPORIA        SUNNY     50  39  66 S6        30.29F HAZE
CHANUTE        SUNNY     53  40  61 VRB3      30.31S
WICHITA        MOSUNNY   50  39  66 SE8       30.27F HAZE
OMAHA          SUNNY     48  33  56 S9        30.28S HAZE
LINCOLN        MOSUNNY   53  35  50 S12       30.26F HAZE
FALLS CITY     SUNNY     50  38  63 S9        30.30S HAZE
LAMONI         SUNNY     47  35  63 VRB6      30.32F
DES MOINES     MOSUNNY   45  34  65 SE7       30.36S

$$




USA.gov is the U.S. government's official web portal to all federal, state and local government web resources and services.